Location: Caltech
(34.1382°N, 118.1253°W)
Time: 01:40:51
(UTC-07:00)

CZ-4B DEB - Visible Passes

Search period start: 29 July 2014 00:00
Search period end: 08 August 2014 00:00
Orbit: 843 x 865 km, 98.8° (Epoch: 28 July)

Date Brightness Start Highest point End Pass type
(mag) Time Alt. Az. Time Alt. Az. Time Alt. Az.
29 Jul 6.5 03:12:58 10° NE 03:16:28 17° E 03:19:57 10° SE visible
29 Jul 4.5 04:52:11 10° N 04:57:27 50° WNW 05:02:05 13° SW visible
30 Jul 6.7 03:02:59 10° ENE 03:05:29 13° E 03:07:58 10° ESE visible
30 Jul 4.2 04:41:13 10° N 04:46:36 64° WNW 04:51:01 16° SSW visible
31 Jul 4.1 04:30:17 10° N 04:35:45 81° WNW 04:39:56 18° SSW visible
01 Aug 4.2 04:19:24 10° NNE 04:24:53 80° ESE 04:28:52 19° S visible
02 Aug 4.5 04:08:35 10° NNE 04:14:00 63° ESE 04:17:47 20° S visible
03 Aug 4.9 03:57:49 10° NNE 04:03:06 49° E 04:06:43 20° SSE visible
04 Aug 5.3 03:47:07 10° NNE 03:52:11 38° E 03:55:38 19° SSE visible
04 Aug 5.5 05:28:26 10° NNW 05:32:39 24° WNW 05:36:53 10° WSW visible
05 Aug 5.7 03:36:30 10° NE 03:41:15 30° E 03:44:34 17° SSE visible
05 Aug 5.2 05:17:14 10° N 05:21:53 29° WNW 05:26:31 10° SW visible
06 Aug 6.1 03:25:59 10° NE 03:30:18 24° E 03:33:29 15° SE visible
06 Aug 4.9 05:06:07 10° N 05:11:05 37° WNW 05:15:33 12° SW visible
07 Aug 6.4 03:15:37 10° NE 03:19:20 19° E 03:22:24 12° SE visible
07 Aug 4.5 04:55:04 10° N 05:00:16 47° WNW 05:04:28 15° SW visible
